Terminal Aerodrome Forecast
Issued by NWS

Home | Current Version | Previous Version | Text Only | Print | Product List | Glossary Off
Versions: 1 2 3 4 5 6 7 8 9 10 11 12 13 14 15 16 17 18 19 20 21 22 23 24 25 26 27 28 29 30 31 32 33 34 35 36

000
FTUS43 KLOT 220539
TAFORD
TAF
KORD 220539Z 2206/2312 29011G16KT P6SM SCT035 BKN060
     FM221200 30014G24KT P6SM SCT050
     FM221500 30018G28KT P6SM BKN050
     FM230100 29010KT P6SM FEW070=

USA.gov is the U.S. government's official web portal to all federal, state and local government web resources and services.